Weather History for KOXC - May, 2013

Change the Weather History Date:

Monday, May 6, 2013

  Actual Average Record
Temperature  
Mean Temperature 52 °F -  
Max Temperature 68 °F 63 °F 82 °F (2000)
Min Temperature 37 °F 43 °F 35 °F (2005)
Degree Days  
Heating Degree Days 12    
Growing Degree Days 2 (Base 50)    
Moisture  
Dew Point 42 °F    
Average Humidity 75    
Maximum Humidity 87    
Minimum Humidity 49    
Precipitation  
Precipitation 0.00 in - - ()
Sea Level Pressure  
Sea Level Pressure 30.24 in    
Wind  
Wind Speed 2 mph (SSE)    
Max Wind Speed 12 mph    
Max Gust Speed 17 mph    
Visibility 8 miles    
Events Fog    
Averages and records for this station are not official NWS values.
T = Trace of Precipitation, MM = Missing Value Source: NWS Daily Summary

Daily Weather History Graph

Daily Weather History Graph

Search for Another Location

Airport or City:

Trip Planner

Search our weather history database for the weather conditions in past years. The results will help you decide how hot, cold, wet, or windy it might be!

Date:

Astronomy

May. 06, 2013 Rise Set
Actual Time 5:43 AM EDT 7:55 PM EDT
Civil Twilight 5:12 AM EDT 8:26 PM EDT
Nautical Twilight 4:34 AM EDT 9:04 PM EDT
Astronomical Twilight 3:53 AM EDT 9:46 PM EDT
Moon 3:46 AM EDT (5/6) 4:51 PM EDT (5/6)
Length of Visible Light 15h 14m
Length of Day
14h 12m
Waning Crescent, 11% of the Moon is Illuminated
May 6
Waning Crescent
May 9
New
May 18
First Quarter
May 25
Full
May 31
Last Quarter

Hourly Weather History & Observations

Time (EDT) Temp. Windchill Dew Point Humidity Pressure Visibility Wind Dir Wind Speed Gust Speed Precip Events Conditions
12:15 AM 42.8 °F - 37.4 °F 81% 30.27 in 10.0 mi Calm Calm - N/A   Clear
12:35 AM 41.0 °F - 35.6 °F 81% 30.27 in 9.0 mi Calm Calm - N/A   Clear
12:55 AM 37.4 °F - 33.8 °F 87% 30.27 in 8.0 mi Calm Calm - N/A   Scattered Clouds
1:15 AM 41.0 °F 39.0 °F 37.4 °F 87% 30.26 in 9.0 mi East 3.5 mph - N/A   Overcast
1:35 AM 42.8 °F 40.1 °F 39.2 °F 87% 30.26 in 9.0 mi SE 4.6 mph - N/A   Overcast
1:55 AM 44.6 °F - 39.2 °F 81% 30.25 in 10.0 mi Calm Calm - N/A   Overcast
2:15 AM 44.6 °F 43.1 °F 39.2 °F 81% 30.26 in 10.0 mi SE 3.5 mph - N/A   Overcast
2:35 AM 42.8 °F 41.1 °F 39.2 °F 87% 30.25 in 9.0 mi East 3.5 mph - N/A   Overcast
2:55 AM 42.8 °F - 39.2 °F 87% 30.25 in 9.0 mi Calm Calm - N/A   Overcast
3:15 AM 42.8 °F - 39.2 °F 87% 30.24 in 8.0 mi Calm Calm - N/A   Overcast
3:35 AM 42.8 °F 41.1 °F 39.2 °F 87% 30.24 in 9.0 mi ESE 3.5 mph - N/A   Overcast
3:55 AM 42.8 °F - 37.4 °F 81% 30.24 in 7.0 mi Calm Calm - N/A   Overcast
4:15 AM 42.8 °F - 37.4 °F 81% 30.24 in 6.0 mi Calm Calm - N/A   Overcast
4:35 AM 42.8 °F 39.3 °F 37.4 °F 81% 30.24 in 5.0 mi NE 5.8 mph - N/A   Overcast
4:55 AM 42.8 °F 40.1 °F 37.4 °F 81% 30.25 in 4.0 mi East 4.6 mph - N/A   Overcast
5:15 AM 42.8 °F 41.1 °F 37.4 °F 81% 30.25 in 4.0 mi East 3.5 mph - N/A   Overcast
5:45 AM 42.8 °F - 37.4 °F 81% 30.27 in 0.8 mi Calm Calm - N/A   Mist
6:45 AM 42.8 °F - 37.4 °F 81% 30.28 in 0.5 mi Calm Calm - N/A Fog Fog
7:15 AM 42.8 °F - 37.4 °F 81% 30.29 in 1.0 mi Calm Calm - N/A   Mist
7:45 AM 42.8 °F - 39.2 °F 87% 30.28 in 1.0 mi Calm Calm - N/A   Overcast
8:30 AM 46.4 °F 43.5 °F 42.8 °F 87% 30.29 in 3.0 mi SSE 5.8 mph - N/A   Overcast
8:55 AM 48.2 °F - 41.0 °F 76% 30.29 in 7.0 mi Calm Calm - N/A   Overcast
9:45 AM 51.8 °F - 42.8 °F 71% 30.28 in 10.0 mi Calm Calm - N/A   Scattered Clouds
10:10 AM 53.6 °F - 44.6 °F 72% 30.29 in 10.0 mi Calm Calm - N/A   Mostly Cloudy
10:45 AM 57.2 °F - 46.4 °F 67% 30.27 in 10.0 mi Calm Calm - N/A   Scattered Clouds
11:45 AM 62.6 °F - 48.2 °F 59% 30.27 in 10.0 mi SSW 8.1 mph - N/A   Scattered Clouds
12:45 PM 62.6 °F - 48.2 °F 59% 30.25 in 10.0 mi South 6.9 mph - N/A   Partly Cloudy
1:45 PM 66.2 °F - 48.2 °F 52% 30.23 in 10.0 mi WSW 5.8 mph - N/A   Partly Cloudy
2:45 PM 68.0 °F - 48.2 °F 49% 30.21 in 10.0 mi SSW 8.1 mph - N/A   Partly Cloudy
3:45 PM 66.2 °F - 50.0 °F 56% 30.19 in 10.0 mi SSW 11.5 mph 16.1 mph N/A   Partly Cloudy
4:45 PM 66.2 °F - 48.2 °F 52% 30.19 in 10.0 mi SW 11.5 mph 17.3 mph N/A   Partly Cloudy
5:45 PM 64.4 °F - 48.2 °F 56% 30.18 in 10.0 mi South 9.2 mph 16.1 mph N/A   Clear
6:45 PM 62.6 °F - 48.2 °F 59% 30.18 in 10.0 mi South 11.5 mph 17.3 mph N/A   Clear
7:45 PM 60.8 °F - 46.4 °F 59% 30.18 in 10.0 mi South 8.1 mph - N/A   Clear
8:55 PM 55.4 °F - 44.6 °F 67% 30.20 in 10.0 mi South 3.5 mph - N/A   Clear
9:15 PM 55.4 °F - 44.6 °F 67% 30.20 in 10.0 mi South 3.5 mph - N/A   Clear
9:35 PM 53.6 °F - 44.6 °F 72% 30.21 in 10.0 mi Calm Calm - N/A   Clear
9:55 PM 53.6 °F - 44.6 °F 72% 30.21 in 10.0 mi Calm Calm - N/A   Clear
10:15 PM 51.8 °F - 44.6 °F 76% 30.21 in 10.0 mi SSE 3.5 mph - N/A   Clear
10:35 PM 51.8 °F - 44.6 °F 76% 30.21 in 10.0 mi Calm Calm - N/A   Clear
10:55 PM 48.2 °F - 42.8 °F 82% 30.21 in 10.0 mi Calm Calm - N/A   Clear
11:15 PM 51.8 °F - 44.6 °F 76% 30.20 in 10.0 mi Calm Calm - N/A   Clear
11:35 PM 50.0 °F - 42.8 °F 76% 30.20 in 10.0 mi South 3.5 mph - N/A   Clear
11:55 PM 50.0 °F - 42.8 °F 76% 30.20 in 10.0 mi Calm Calm - N/A   Clear